Regional Weather Roundup
Issued by NWS Kansas City/Pleasant Hill, MO

Home | Current Version | Previous Version | Graphics & Text | Print | Product List | Glossary Off
Versions: 1 2 3 4 5 6 7 8 9 10 11 12 13 14 15 16 17 18 19 20 21 22 23 24 25 26 27

000
ASUS43 KEAX 261510
RWREAX

WEATHER ROUNDUP FOR EASTERN KANSAS AND NORTHWEST MISSOURI
NATIONAL WEATHER SERVICE KANSAS CITY/PLEASANT HILL MO
1000 AM CDT MON JUN 26 2017

KSZ040-057-103>105-MOZ028-029-037-043-261600-
...KANSAS CITY METROPOLITAN AREA...

CITY           SKY/WX    TMP DP  RH WIND       PRES   REMARKS
K.C. INTL      RAIN      58  55  90 NE13      30.25R FOG
K.C. DOWNTOWN  LGT RAIN  62  55  77 NE9G22    30.23R
LEES SUMMIT    CLOUDY    68  56  65 N5        30.22S
OLATHE - IXD   PTSUNNY   69  54  58 SE6       30.22R
OLATHE - OJC   CLOUDY    66  55  67 CALM      30.21R THUNDER
LAWRENCE       PTSUNNY   69  58  67 N5        30.21R

$$

MOZ001>008-011>017-020>025-030>033-038>040-044>046-053-054-261600-
...NORTHERN AND CENTRAL MISSOURI...

CITY           SKY/WX    TMP DP  RH WIND       PRES   REMARKS
ST. JOSEPH     TSTM      60  57  89 NE8       30.26S
MOSBY          LGT RAIN  61  52  72 NE6       30.25R
WARRENSBURG    MOSUNNY   70  55  60 N3        30.23R
WHITEMAN AFB   PTSUNNY   72  55  55 S3        30.21R
CLINTON        MOSUNNY   72  55  56 S7        30.21S
SEDALIA        SUNNY     73  56  54 CALM      30.23R
WARSAW         NOT AVBL
CHILLICOTHE      N/A     60  54  80 N7        30.26S
KIRKSVILLE     CLOUDY    60  51  72 NW3       30.27R

$$

MOZ041-047>049-056>058-063>065-088>090-097-261600-
...EASTERN AND SOUTHERN MISSOURI...

CITY           SKY/WX    TMP DP  RH WIND       PRES   REMARKS
ST. LOUIS INTL MOSUNNY   77  48  35 SW5       30.22S
SPIRIT OF STL  SUNNY     73  53  49 W5        30.21S
COLUMBIA       SUNNY     71  53  52 S6        30.23R
JEFFERSON CITY SUNNY     70  53  54 SE6       30.22R
ROLLA          MOSUNNY   72  50  45 S6        30.22S
OSAGE BEACH    SUNNY     72  53  51 SE8       30.22F
SPRINGFIELD    CLOUDY    70  61  73 CALM      30.22F
BRANSON        PTSUNNY   72  59  64 SE9       30.25F
JOPLIN         CLOUDY    73  62  68 E6        30.22S
WEST PLAINS    CLOUDY    64  61  90 CALM      30.25F

$$

IAZ060-094-KSZ022-034>040-054-083-096-NEZ052-066-093-261600-
...KANSAS...SOUTHEAST NEBRASKA AND IOWA...

CITY           SKY/WX    TMP DP  RH WIND       PRES   REMARKS
TOPEKA         PTSUNNY   67  61  81 NE7       30.20S
MANHATTAN      MOSUNNY   70  61  73 CALM      30.19F
EMPORIA        MOSUNNY   73  56  54 S14       30.19F
CHANUTE          N/A    N/A N/A N/A MISG      30.20F
WICHITA        MOSUNNY   72  58  61 SE10      30.20F
OMAHA          CLOUDY    61  55  81 S8        30.19F
LINCOLN        PTSUNNY   64  58  80 S9        30.20F
FALLS CITY     CLOUDY    63  57  81 E9        30.22S
LAMONI         LGT RAIN  56  53  90 SE6       30.27S
DES MOINES     CLOUDY    61  55  81 SW3       30.21R

$$





USA.gov is the U.S. government's official web portal to all federal, state and local government web resources and services.